Location: *
(38.9555°S, 57.3572°E)
Time: 01:26:24
(UTC+00:00)

Cosmos 1937 Rocket - Pass Details

Date: 15 July 2020
Orbit: 746 x 781 km, 74.0° (Epoch: 06 August)

Event Time Altitude Azimuth Distance (km) Brightness Sun altitude
Rises 15:44:28 0° 328° (NNW) 3,220 7.2 -30.0°
Reaches altitude 10° 15:46:54 10° 322° (NW) 2,297 6.4 -30.5°
Maximum altitude 15:51:56 48° 247° (WSW) 997 4.3 -31.4°
Enters shadow 15:52:01 48° 244° (WSW) 998 4.3 -31.5°
